| time (UTC) | temp C | wind direction | speed KPH | gust KPH | rain 1hr cm | rain 24hr cm | rain mn cm | humidity % | barometer mb |
| 20260902060729 | 11 | 192 | 4.8 | 4.8 | 0.00 | 0.00 | 0.00 | 61 | 1020.0 |
| 20260902055523 | 10 | 191 | 0.0 | 0.0 | 0.00 | 0.00 | 0.00 | 60 | 1020.0 |
| 20260902054921 | 10 | 192 | 0.0 | 0.0 | 0.00 | 0.00 | 0.00 | 59 | 1020.0 |
| 20260902053717 | 10 | 192 | 0.0 | 0.0 | 0.00 | 0.00 | 0.00 | 59 | 1020.0 |
| 20260902051909 | 8 | 191 | 4.8 | 4.8 | 0.00 | 0.00 | 0.00 | 57 | 1020.0 |
| 20260902051308 | 8 | 193 | 4.8 | 4.8 | 0.00 | 0.00 | 0.00 | 56 | 1020.0 |
| 20260902045457 | 8 | 192 | 4.8 | 4.8 | 0.00 | 0.00 | 0.00 | 56 | 1020.0 |
| 20260902044855 | 8 | 192 | 4.8 | 4.8 | 0.00 | 0.00 | 0.00 | 56 | 1020.0 |
| 20260902044254 | 8 | 192 | 0.0 | 0.0 | 0.00 | 0.00 | 0.00 | 56 | 1020.0 |
| 20260902043050 | 8 | 191 | 4.8 | 4.8 | 0.00 | 0.00 | 0.00 | 55 | 1020.0 |
| 20260902042446 | 9 | 192 | 4.8 | 4.8 | 0.00 | 0.00 | 0.00 | 55 | 1020.0 |
| 20260902041241 | 9 | 192 | 3.2 | 3.2 | 0.00 | 0.00 | 0.00 | 54 | 1020.0 |
| 20260902034227 | 9 | 192 | 3.2 | 4.8 | 0.00 | 0.00 | 0.00 | 53 | 1020.0 |
| 20260902033025 | 9 | 192 | 4.8 | 4.8 | 0.00 | 0.00 | 0.00 | 53 | 1020.0 |
| 20260902032420 | 9 | 192 | 3.2 | 3.2 | 0.00 | 0.00 | 0.00 | 53 | 1020.0 |
| 20260902031219 | 10 | 193 | 3.2 | 4.8 | 0.00 | 0.00 | 0.00 | 53 | 1020.0 |
| 20260902031214 | 10 | 193 | 3.2 | 4.8 | 0.00 | 0.00 | 0.00 | 53 | 1020.0 |
| 20260902030006 | 9 | 193 | 3.2 | 4.8 | 0.00 | 0.00 | 0.00 | 52 | 1020.0 |
| 20260902024155 | 9 | 192 | 3.2 | 4.8 | 0.00 | 0.00 | 0.00 | 52 | 1020.0 |
| 20260902022943 | 10 | 193 | 4.8 | 4.8 | 0.00 | 0.00 | 0.00 | 51 | 1020.0 |
| 20260902022347 | 10 | 192 | 0.0 | 4.8 | 0.00 | 0.00 | 0.00 | 51 | 1020.0 |
| 20260902022340 | 10 | 192 | 0.0 | 4.8 | 0.00 | 0.00 | 0.00 | 51 | 1020.0 |
| 20260902021737 | 10 | 192 | 4.8 | 4.8 | 0.00 | 0.00 | 0.00 | 51 | 1020.0 |
| 20260902015927 | 10 | 193 | 0.0 | 0.0 | 0.00 | 0.00 | 0.00 | 51 | 1020.0 |
| 20260902015324 | 10 | 192 | 0.0 | 0.0 | 0.00 | 0.00 | 0.00 | 50 | 1020.0 |
| 20260902014720 | 10 | 192 | 0.0 | 4.8 | 0.00 | 0.00 | 0.00 | 50 | 1020.0 |
| 20260902013515 | 10 | 192 | 0.0 | 0.0 | 0.00 | 0.00 | 0.00 | 50 | 1020.0 |
| 20260902012913 | 10 | 191 | 0.0 | 0.0 | 0.00 | 0.00 | 0.00 | 49 | 1020.0 |
| 20260902012310 | 10 | 192 | 4.8 | 4.8 | 0.00 | 0.00 | 0.00 | 49 | 1020.0 |
| 20260902011710 | 10 | 192 | 4.8 | 4.8 | 0.00 | 0.00 | 0.00 | 49 | 1020.0 |
| 20260902005858 | 10 | 192 | 0.0 | 0.0 | 0.00 | 0.00 | 0.00 | 48 | 1020.0 |
| 20260902004654 | 10 | 193 | 3.2 | 4.8 | 0.00 | 0.00 | 0.00 | 47 | 1020.0 |
| 20260902003447 | 10 | 192 | 0.0 | 0.0 | 0.00 | 0.00 | 0.00 | 47 | 1020.0 |
| 20260902002243 | 10 | 192 | 0.0 | 0.0 | 0.00 | 0.00 | 0.00 | 47 | 1020.0 |
| 20260902001641 | 10 | 193 | 4.8 | 4.8 | 0.00 | 0.00 | 0.00 | 46 | 1020.0 |
| 20260902001038 | 10 | 192 | 4.8 | 4.8 | 0.00 | 0.00 | 0.00 | 45 | 1020.0 |
| 20260902000436 | 11 | 192 | 4.8 | 4.8 | 0.00 | 0.00 | 0.00 | 46 | 1020.0 |
| 20260901235830 | 11 | 192 | 0.0 | 4.8 | 0.00 | 0.00 | 0.00 | 46 | 1020.0 |
| 20260901235227 | 11 | 192 | 4.8 | 4.8 | 0.00 | 0.00 | 0.00 | 46 | 1020.0 |
| 20260901234022 | 11 | 192 | 4.8 | 4.8 | 0.00 | 0.00 | 0.00 | 44 | 1020.0 |
| 20260901232216 | 11 | 192 | 0.0 | 0.0 | 0.00 | 0.00 | 0.00 | 43 | 1020.0 |
| 20260901231010 | 11 | 193 | 4.8 | 4.8 | 0.00 | 0.00 | 0.00 | 42 | 1020.0 |
| 20260901230407 | 12 | 192 | 0.0 | 4.8 | 0.00 | 0.00 | 0.00 | 43 | 1020.0 |
| 20260901225804 | 12 | 192 | 4.8 | 4.8 | 0.00 | 0.00 | 0.00 | 42 | 1020.0 |
| 20260901225204 | 11 | 192 | 0.0 | 0.0 | 0.00 | 0.00 | 0.00 | 42 | 1020.0 |
| 20260901224000 | 11 | 191 | 4.8 | 4.8 | 0.00 | 0.00 | 0.00 | 40 | 1020.0 |
| 20260901223352 | 12 | 192 | 4.8 | 4.8 | 0.00 | 0.00 | 0.00 | 39 | 1020.0 |
| 20260901222750 | 12 | 192 | 0.0 | 0.0 | 0.00 | 0.00 | 0.00 | 40 | 1020.0 |
| 20260901221542 | 12 | 192 | 0.0 | 3.2 | 0.00 | 0.00 | 0.00 | 39 | 1020.0 |
| 20260901220940 | 13 | 192 | 3.2 | 3.2 | 0.00 | 0.00 | 0.00 | 39 | 1021.0 |
| 20260901220340 | 13 | 192 | 0.0 | 0.0 | 0.00 | 0.00 | 0.00 | 38 | 1021.0 |
| 20260901215739 | 13 | 192 | 3.2 | 3.2 | 0.00 | 0.08 | 0.00 | 38 | 1021.0 |
| 20260901215135 | 13 | 193 | 0.0 | 3.2 | 0.00 | 0.08 | 0.00 | 38 | 1020.0 |
| 20260901213932 | 13 | 192 | 3.2 | 3.2 | 0.00 | 0.08 | 0.00 | 38 | 1021.0 |
| 20260901212727 | 13 | 193 | 0.0 | 3.2 | 0.00 | 0.08 | 0.00 | 38 | 1021.0 |
| 20260901210313 | 13 | 193 | 3.2 | 3.2 | 0.00 | 0.08 | 0.00 | 37 | 1020.0 |
| 20260901205710 | 13 | 193 | 0.0 | 0.0 | 0.00 | 0.08 | 0.00 | 37 | 1020.0 |
| 20260901205109 | 13 | 192 | 0.0 | 0.0 | 0.00 | 0.08 | 0.00 | 37 | 1020.0 |
| 20260901204507 | 13 | 192 | 0.0 | 0.0 | 0.00 | 0.08 | 0.00 | 36 | 1020.0 |
| 20260901203306 | 13 | 193 | 4.8 | 4.8 | 0.00 | 0.08 | 0.00 | 36 | 1020.0 |
| 20260901202704 | 13 | 192 | 0.0 | 0.0 | 0.00 | 0.08 | 0.00 | 35 | 1020.0 |
| 20260901202104 | 13 | 192 | 0.0 | 0.0 | 0.00 | 0.08 | 0.00 | 35 | 1020.0 |
| 20260901200903 | 13 | 192 | 0.0 | 0.0 | 0.00 | 0.08 | 0.00 | 35 | 1020.0 |
| 20260901200258 | 13 | 192 | 0.0 | 4.8 | 0.00 | 0.08 | 0.00 | 35 | 1020.0 |
| 20260901195657 | 13 | 192 | 4.8 | 4.8 | 0.00 | 0.08 | 0.00 | 34 | 1020.0 |
| 20260901195054 | 13 | 192 | 0.0 | 0.0 | 0.00 | 0.08 | 0.00 | 34 | 1020.0 |
| 20260901193851 | 13 | 192 | 0.0 | 0.0 | 0.00 | 0.08 | 0.00 | 33 | 1020.0 |
| 20260901192644 | 13 | 193 | 0.0 | 0.0 | 0.00 | 0.08 | 0.00 | 30 | 1020.0 |
| 20260901190832 | 14 | 192 | 3.2 | 4.8 | 0.00 | 0.08 | 0.00 | 27 | 1020.0 |
| 20260901190229 | 14 | 192 | 0.0 | 0.0 | 0.00 | 0.08 | 0.00 | 27 | 1020.0 |
| 20260901185628 | 15 | 192 | 0.0 | 3.2 | 0.00 | 0.08 | 0.00 | 27 | 1020.0 |
| 20260901184427 | 15 | 191 | 4.8 | 4.8 | 0.00 | 0.08 | 0.00 | 26 | 1020.0 |
| 20260901183825 | 15 | 192 | 4.8 | 4.8 | 0.00 | 0.08 | 0.00 | 25 | 1020.0 |
| 20260901182621 | 16 | 192 | 3.2 | 4.8 | 0.00 | 0.08 | 0.00 | 25 | 1020.0 |
| 20260901182017 | 16 | 192 | 4.8 | 4.8 | 0.00 | 0.08 | 0.00 | 25 | 1020.0 |
| 20260901181418 | 16 | 192 | 4.8 | 4.8 | 0.00 | 0.08 | 0.00 | 24 | 1020.0 |
| 20260901180815 | 16 | 193 | 4.8 | 4.8 | 0.00 | 0.08 | 0.00 | 24 | 1019.0 |
| 20260901175612 | 17 | 192 | 4.8 | 4.8 | 0.00 | 0.08 | 0.00 | 23 | 1020.0 |
| 20260901175008 | 17 | 192 | 4.8 | 4.8 | 0.00 | 0.08 | 0.00 | 20 | 1020.0 |
| 20260901173807 | 17 | 193 | 4.8 | 4.8 | 0.00 | 0.08 | 0.00 | 20 | 1020.0 |
| 20260901173207 | 18 | 193 | 4.8 | 4.8 | 0.00 | 0.08 | 0.00 | 17 | 1020.0 |
| 20260901171358 | 20 | 193 | 0.0 | 0.0 | 0.00 | 0.08 | 0.00 | 15 | 1019.0 |
| 20260901165552 | 20 | 193 | 0.0 | 3.2 | 0.00 | 0.08 | 0.00 | 14 | 1020.0 |
| 20260901161937 | 21 | 190 | 0.0 | 3.2 | 0.00 | 0.08 | 0.00 | 14 | 1020.0 |
| 20260901161334 | 21 | 190 | 4.8 | 4.8 | 0.00 | 0.08 | 0.00 | 14 | 1020.0 |
| 20260901160128 | 21 | 189 | 4.8 | 4.8 | 0.00 | 0.08 | 0.00 | 14 | 1020.0 |
| 20260901154918 | 21 | 197 | 3.2 | 4.8 | 0.00 | 0.08 | 0.00 | 14 | 1020.0 |
| 20260901153112 | 21 | 190 | 0.0 | 4.8 | 0.00 | 0.08 | 0.00 | 14 | 1020.0 |
| 20260901152510 | 21 | 175 | 0.0 | 4.8 | 0.00 | 0.08 | 0.00 | 14 | 1020.0 |
| 20260901144858 | 22 | 208 | 3.2 | 4.8 | 0.00 | 0.08 | 0.00 | 13 | 1020.0 |
| 20260901144256 | 22 | 177 | 3.2 | 4.8 | 0.00 | 0.08 | 0.00 | 13 | 1020.0 |
| 20260901143654 | 22 | 180 | 4.8 | 4.8 | 0.00 | 0.08 | 0.00 | 13 | 1020.0 |
| 20260901143049 | 22 | 193 | 4.8 | 4.8 | 0.00 | 0.08 | 0.00 | 13 | 1020.0 |
| 20260901142444 | 22 | 281 | 4.8 | 4.8 | 0.00 | 0.08 | 0.00 | 13 | 1020.0 |
| 20260901141841 | 22 | 197 | 4.8 | 4.8 | 0.00 | 0.08 | 0.00 | 13 | 1020.0 |
| 20260901140034 | 22 | 161 | 4.8 | 4.8 | 0.00 | 0.08 | 0.00 | 13 | 1020.0 |
| 20260901135431 | 22 | 160 | 3.2 | 4.8 | 0.00 | 0.08 | 0.00 | 13 | 1020.0 |
| 20260901134229 | 22 | 303 | 4.8 | 4.8 | 0.00 | 0.08 | 0.00 | 13 | 1020.0 |
| 20260901133627 | 22 | 156 | 4.8 | 6.4 | 0.00 | 0.08 | 0.00 | 13 | 1020.0 |
| 20260901132418 | 22 | 120 | 3.2 | 4.8 | 0.00 | 0.08 | 0.00 | 13 | 1020.0 |
| 20260901131211 | 22 | 177 | 4.8 | 4.8 | 0.00 | 0.08 | 0.00 | 13 | 1020.0 |
| 20260901130608 | 22 | 177 | 4.8 | 6.4 | 0.00 | 0.08 | 0.00 | 13 | 1020.0 |
| 20260901125401 | 22 | 177 | 4.8 | 4.8 | 0.00 | 0.08 | 0.00 | 13 | 1020.0 |
| 20260901124758 | 22 | 178 | 4.8 | 4.8 | 0.00 | 0.08 | 0.00 | 13 | 1020.0 |
| 20260901124156 | 22 | 221 | 4.8 | 6.4 | 0.00 | 0.08 | 0.00 | 13 | 1020.0 |
| 20260901122952 | 22 | 164 | 0.0 | 8.0 | 0.00 | 0.08 | 0.00 | 14 | 1020.0 |
| 20260901122347 | 22 | 184 | 4.8 | 4.8 | 0.00 | 0.08 | 0.00 | 13 | 1020.0 |
| 20260901121742 | 22 | 185 | 4.8 | 4.8 | 0.00 | 0.08 | 0.00 | 13 | 1020.0 |
| 20260901115936 | 22 | 148 | 3.2 | 4.8 | 0.00 | 0.08 | 0.00 | 16 | 1020.0 |
| 20260901115335 | 22 | 2 | 4.8 | 4.8 | 0.00 | 0.08 | 0.00 | 16 | 1020.0 |
| 20260901114733 | 22 | 168 | 4.8 | 4.8 | 0.00 | 0.08 | 0.00 | 13 | 1020.0 |
| 20260901112926 | 21 | 277 | 3.2 | 4.8 | 0.00 | 0.08 | 0.00 | 19 | 1021.0 |
| 20260901112328 | 21 | 183 | 4.8 | 4.8 | 0.00 | 0.08 | 0.00 | 19 | 1021.0 |
| 20260901111724 | 21 | 160 | 4.8 | 4.8 | 0.00 | 0.08 | 0.00 | 19 | 1021.0 |
| 20260901111124 | 21 | 173 | 3.2 | 6.4 | 0.00 | 0.08 | 0.00 | 19 | 1021.0 |
| 20260901104712 | 22 | 208 | 4.8 | 4.8 | 0.00 | 0.08 | 0.00 | 19 | 1019.0 |
| 20260901104110 | 21 | 186 | 3.2 | 4.8 | 0.00 | 0.08 | 0.00 | 19 | 1021.0 |
| 20260901102909 | 21 | 321 | 3.2 | 4.8 | 0.00 | 0.08 | 0.00 | 19 | 1021.0 |
| 20260901102306 | 21 | 156 | 4.8 | 4.8 | 0.00 | 0.08 | 0.00 | 19 | 1021.0 |
| 20260901095858 | 20 | 164 | 3.2 | 4.8 | 0.00 | 0.08 | 0.00 | 22 | 1021.0 |
| 20260901095256 | 20 | 164 | 3.2 | 4.8 | 0.00 | 0.08 | 0.00 | 22 | 1021.0 |
| 20260901094656 | 20 | 164 | 4.8 | 4.8 | 0.00 | 0.08 | 0.00 | 19 | 1021.0 |
| 20260901094053 | 20 | 160 | 0.0 | 4.8 | 0.00 | 0.08 | 0.00 | 22 | 1021.0 |
| 20260901092243 | 20 | 166 | 3.2 | 4.8 | 0.00 | 0.08 | 0.00 | 23 | 1021.0 |
| 20260901091036 | 20 | 176 | 4.8 | 4.8 | 0.00 | 0.08 | 0.00 | 24 | 1021.0 |
| 20260901085832 | 19 | 170 | 3.2 | 8.0 | 0.00 | 0.08 | 0.00 | 23 | 1021.0 |
| 20260901083415 | 19 | 177 | 0.0 | 4.8 | 0.00 | 0.08 | 0.00 | 26 | 1021.0 |
| 20260901082812 | 18 | 174 | 3.2 | 4.8 | 0.00 | 0.08 | 0.00 | 26 | 1021.0 |
| 20260901081007 | 18 | 164 | 3.2 | 8.0 | 0.00 | 0.08 | 0.00 | 29 | 1021.0 |
| 20260901074000 | 16 | 157 | 4.8 | 4.8 | 0.00 | 0.08 | 0.00 | 35 | 1021.0 |
| 20260901073356 | 16 | 150 | 3.2 | 3.2 | 0.00 | 0.08 | 0.00 | 44 | 1021.0 |
| 20260901072754 | 16 | 147 | 0.0 | 3.2 | 0.00 | 0.08 | 0.00 | 49 | 1021.0 |
| 20260901070352 | 14 | 147 | 0.0 | 0.0 | 0.00 | 0.08 | 0.00 | 49 | 1021.0 |
| 20260901070346 | 14 | 147 | 0.0 | 0.0 | 0.00 | 0.08 | 0.00 | 49 | 1021.0 |
| 20260901064538 | 13 | 148 | 0.0 | 0.0 | 0.00 | 0.08 | 0.00 | 49 | 1021.0 |
| 20260901063333 | 13 | 148 | 0.0 | 0.0 | 0.00 | 0.08 | 0.00 | 49 | 1021.0 |
| 20260901062731 | 12 | 147 | 0.0 | 3.2 | 0.00 | 0.08 | 0.00 | 49 | 1021.0 |
| 20260901062127 | 12 | 147 | 3.2 | 3.2 | 0.00 | 0.08 | 0.00 | 48 | 1021.0 |
| 20260901061524 | 12 | 147 | 0.0 | 0.0 | 0.00 | 0.08 | 0.00 | 48 | 1021.0 |